Location: Cabrera Baja
(40.4089°N, 4.3354°W)
Time: 03:14:59
(UTC+00:00)

Cosmos 1816 Rocket - Pass Details

Date: 14 July 2020
Orbit: 952 x 998 km, 82.9° (Epoch: 03 August)

Event Time Altitude Azimuth Distance (km) Brightness Sun altitude
Rises 02:21:44 0° 352° (N) 3,729 8.4 -22.1°
Reaches altitude 10° 02:24:16 10° 352° (N) 2,775 7.6 -21.9°
Maximum altitude 02:30:39 85° 265° (W) 1,004 4.5 -21.3°
Enters shadow 02:33:55 31° 178° (S) 1,656 5.3 -20.9°
